OECMB LOWG-LIPZ

Flight info

Callsign OECMB
Flight time N/A
Altitude 30000
Route RADLY DCT KEBBU/N0281F290 DCT ROSKA/N0270F190 M859 TULIK Z71 BASOG
Aircraft SF50/L-SDGRWY/L

Departure

Time 2026-04-23 19:17
Airport Graz Airport (LOWG)

Arrival

Time N/A
Airport Venice Marco Polo Airport (LIPZ)
Time Latitude Longitude Altitude Speed Heading
2026-04-23 19:09 46.99383 15.44392 1104 ft 0 kts 350°
2026-04-23 19:09 46.99387 15.44391 1104 ft 4 kts 350°
2026-04-23 19:09 46.99398 15.44333 1104 ft 7 kts 259°
2026-04-23 19:10 46.99406 15.44283 1102 ft 0 kts 348°
2026-04-23 19:11 46.99408 15.44282 1103 ft 2 kts 351°
2026-04-23 19:11 46.99444 15.44272 1104 ft 7 kts 348°
2026-04-23 19:11 46.99509 15.44254 1103 ft 12 kts 349°
2026-04-23 19:11 46.99573 15.44237 1107 ft 10 kts 349°
2026-04-23 19:12 46.99627 15.44222 1105 ft 13 kts 349°
2026-04-23 19:12 46.99743 15.44190 1107 ft 10 kts 349°
2026-04-23 19:12 46.99795 15.44175 1109 ft 8 kts 349°
2026-04-23 19:12 46.99861 15.44157 1109 ft 10 kts 349°
2026-04-23 19:13 46.99930 15.44119 1111 ft 9 kts 307°
2026-04-23 19:13 46.99933 15.44052 1111 ft 6 kts 257°
2026-04-23 19:13 46.99912 15.43961 1109 ft 11 kts 226°
2026-04-23 19:13 46.99904 15.43950 1111 ft 0 kts 224°
2026-04-23 19:15 46.99852 15.43912 1108 ft 14 kts 198°
2026-04-23 19:15 46.99747 15.43873 1108 ft 15 kts 195°
2026-04-23 19:15 46.99655 15.43835 1104 ft 12 kts 195°
2026-04-23 19:15 46.99605 15.43826 1107 ft 0 kts 169°
2026-04-23 19:16 46.99441 15.43872 1105 ft 56 kts 169°
2026-04-23 19:16 46.98852 15.44033 1115 ft 111 kts 170°
2026-04-23 19:16 46.98031 15.44254 1504 ft 113 kts 170°
2026-04-23 19:17 46.96140 15.44834 1960 ft 153 kts 169°
2026-04-23 19:17 46.94931 15.45109 2057 ft 194 kts 171°
2026-04-23 19:17 46.93519 15.45537 2278 ft 219 kts 168°
2026-04-23 19:17 46.91977 15.45610 2687 ft 227 kts 196°
2026-04-23 19:18 46.90665 15.44429 3237 ft 220 kts 233°
2026-04-23 19:18 46.89772 15.42621 3803 ft 220 kts 243°
2026-04-23 19:18 46.88875 15.40788 4391 ft 224 kts 239°
2026-04-23 19:18 46.87879 15.39001 4963 ft 228 kts 237°
2026-04-23 19:19 46.85186 15.36113 5651 ft 263 kts 210°
2026-04-23 19:19 46.83521 15.34934 6174 ft 265 kts 211°
2026-04-23 19:20 46.80253 15.32469 7257 ft 268 kts 211°
2026-04-23 19:20 46.78575 15.31220 7785 ft 270 kts 210°
2026-04-23 19:20 46.76893 15.29971 8271 ft 272 kts 210°
2026-04-23 19:20 46.75202 15.28714 8749 ft 274 kts 210°
2026-04-23 19:21 46.73500 15.27446 9229 ft 276 kts 209°
2026-04-23 19:21 46.69936 15.24796 9558 ft 295 kts 208°
2026-04-23 19:21 46.68169 15.23494 10400 ft 278 kts 208°
2026-04-23 19:22 46.66457 15.22223 10751 ft 282 kts 208°
2026-04-23 19:22 46.64795 15.20781 11311 ft 272 kts 220°
2026-04-23 19:22 46.62354 15.16868 12650 ft 252 kts 232°
2026-04-23 19:23 46.61224 15.14953 13343 ft 246 kts 232°
2026-04-23 19:23 46.60131 15.13080 14031 ft 239 kts 232°
2026-04-23 19:23 46.59077 15.11261 14652 ft 231 kts 233°
2026-04-23 19:24 46.57079 15.07838 15936 ft 210 kts 233°
2026-04-23 19:24 46.56161 15.06277 16587 ft 196 kts 233°
2026-04-23 19:24 46.54553 15.03513 17899 ft 161 kts 234°
2026-04-23 19:25 46.53249 15.01250 18801 ft 140 kts 234°
2026-04-23 19:25 46.52048 14.99192 19353 ft 134 kts 234°
2026-04-23 19:26 46.50832 14.97128 19828 ft 135 kts 234°
2026-04-23 19:26 46.50226 14.96074 20051 ft 137 kts 242°
2026-04-23 19:27 46.49016 14.93913 20532 ft 139 kts 238°
2026-04-23 19:27 46.47128 14.90694 21187 ft 139 kts 235°
2026-04-23 19:28 46.45868 14.88561 21593 ft 140 kts 237°
2026-04-23 19:28 46.44586 14.86375 22018 ft 142 kts 237°
2026-04-23 19:29 46.43942 14.85276 22211 ft 144 kts 235°
2026-04-23 19:29 46.42639 14.83056 22655 ft 145 kts 235°
2026-04-23 19:30 46.41318 14.80877 23154 ft 139 kts 235°
2026-04-23 19:30 46.40716 14.79797 23370 ft 138 kts 238°
2026-04-23 19:30 46.39472 14.77660 23738 ft 138 kts 236°
2026-04-23 19:31 46.38835 14.76578 23871 ft 142 kts 236°
2026-04-23 19:31 46.38194 14.75508 24045 ft 142 kts 234°
2026-04-23 19:31 46.37549 14.74413 24194 ft 142 kts 237°
2026-04-23 19:31 46.36913 14.73336 24323 ft 145 kts 235°
2026-04-23 19:32 46.36253 14.72227 24486 ft 146 kts 234°
2026-04-23 19:32 46.35575 14.71084 24617 ft 153 kts 234°
2026-04-23 19:32 46.34862 14.69901 24759 ft 158 kts 234°
2026-04-23 19:32 46.34130 14.68674 24903 ft 164 kts 234°
2026-04-23 19:33 46.33373 14.67404 25051 ft 170 kts 234°
2026-04-23 19:33 46.32592 14.66086 25178 ft 174 kts 233°
2026-04-23 19:33 46.30947 14.63326 25465 ft 188 kts 233°
2026-04-23 19:34 46.30079 14.61862 25608 ft 196 kts 234°
2026-04-23 19:34 46.29167 14.60337 25745 ft 204 kts 233°
2026-04-23 19:34 46.27290 14.57152 26008 ft 215 kts 233°
2026-04-23 19:35 46.26303 14.55489 26136 ft 221 kts 233°
2026-04-23 19:35 46.25284 14.53778 26267 ft 227 kts 232°
2026-04-23 19:35 46.24242 14.52023 26413 ft 233 kts 233°
2026-04-23 19:35 46.23169 14.50215 26526 ft 240 kts 233°
2026-04-23 19:36 46.22065 14.48359 26653 ft 247 kts 233°
2026-04-23 19:36 46.20910 14.46418 26685 ft 261 kts 233°
2026-04-23 19:36 46.19703 14.44387 26693 ft 272 kts 233°
2026-04-23 19:36 46.18445 14.42278 26696 ft 282 kts 233°
2026-04-23 19:37 46.17150 14.40105 26696 ft 290 kts 233°
2026-04-23 19:37 46.15818 14.37875 26690 ft 296 kts 233°
2026-04-23 19:37 46.14477 14.35633 26685 ft 302 kts 233°
2026-04-23 19:37 46.13546 14.34076 26692 ft 305 kts 233°
2026-04-23 19:38 46.11693 14.30980 26679 ft 310 kts 233°
2026-04-23 19:38 46.10738 14.29386 26674 ft 312 kts 233°
2026-04-23 19:38 46.08845 14.26237 26640 ft 315 kts 233°
2026-04-23 19:38 46.07403 14.23838 26625 ft 317 kts 233°
2026-04-23 19:39 46.06428 14.22215 26607 ft 317 kts 233°
2026-04-23 19:39 46.04982 14.19809 26588 ft 318 kts 233°
2026-04-23 19:39 46.03527 14.17397 26578 ft 319 kts 233°
2026-04-23 19:39 46.02089 14.15012 26560 ft 320 kts 233°
2026-04-23 19:40 46.00627 14.12591 26536 ft 321 kts 233°
2026-04-23 19:40 45.99160 14.10165 26525 ft 321 kts 233°
2026-04-23 19:40 45.97695 14.07740 26487 ft 322 kts 233°
2026-04-23 19:40 45.96223 14.05305 26464 ft 322 kts 233°
2026-04-23 19:41 45.94746 14.02868 26452 ft 323 kts 233°
2026-04-23 19:41 45.93268 14.00434 26435 ft 324 kts 233°
2026-04-23 19:41 45.91789 13.97996 26418 ft 324 kts 233°
2026-04-23 19:41 45.90304 13.95551 26394 ft 325 kts 233°
2026-04-23 19:42 45.88821 13.93109 26380 ft 325 kts 233°
2026-04-23 19:42 45.87330 13.90657 26332 ft 325 kts 233°
2026-04-23 19:42 45.85840 13.88209 26316 ft 326 kts 233°
2026-04-23 19:42 45.84348 13.85764 26309 ft 326 kts 233°
2026-04-23 19:43 45.82853 13.83310 26297 ft 327 kts 233°
2026-04-23 19:43 45.81351 13.80852 26275 ft 327 kts 233°
2026-04-23 19:43 45.79871 13.78430 26253 ft 327 kts 233°
2026-04-23 19:43 45.78370 13.75973 26236 ft 328 kts 233°
2026-04-23 19:44 45.76867 13.73519 26212 ft 328 kts 233°
2026-04-23 19:44 45.75362 13.71062 26196 ft 328 kts 233°
2026-04-23 19:44 45.73857 13.68608 26187 ft 328 kts 233°
2026-04-23 19:44 45.72352 13.66155 26160 ft 328 kts 233°
2026-04-23 19:45 45.70845 13.63701 26135 ft 328 kts 233°
2026-04-23 19:45 45.69338 13.61251 26113 ft 328 kts 233°
2026-04-23 19:45 45.67832 13.58806 26091 ft 328 kts 233°
2026-04-23 19:45 45.66326 13.56362 26070 ft 328 kts 233°
2026-04-23 19:46 45.64818 13.53917 26043 ft 328 kts 233°
2026-04-23 19:46 45.63317 13.51461 26038 ft 328 kts 236°
2026-04-23 19:46 45.62020 13.48821 26058 ft 324 kts 241°
2026-04-23 19:46 45.60748 13.46157 26030 ft 325 kts 240°
2026-04-23 19:47 45.59459 13.43502 26007 ft 325 kts 240°
2026-04-23 19:47 45.58171 13.40846 25986 ft 325 kts 240°
2026-04-23 19:47 45.56889 13.38187 25979 ft 325 kts 241°
2026-04-23 19:47 45.55618 13.35510 25922 ft 326 kts 244°
2026-04-23 19:48 45.54626 13.32625 25776 ft 327 kts 253°
2026-04-23 19:48 45.53811 13.29540 25251 ft 331 kts 258°
2026-04-23 19:48 45.53210 13.26513 24648 ft 311 kts 264°
2026-04-23 19:48 45.52807 13.23478 24051 ft 314 kts 269°
2026-04-23 19:49 45.52599 13.20394 22775 ft 309 kts 274°
2026-04-23 19:49 45.52592 13.17320 20879 ft 310 kts 280°
2026-04-23 19:49 45.52798 13.14272 19120 ft 307 kts 285°
2026-04-23 19:49 45.53210 13.11317 17313 ft 301 kts 292°
2026-04-23 19:50 45.53808 13.08560 16280 ft 279 kts 298°
2026-04-23 19:50 45.54510 13.06158 16233 ft 241 kts 304°
2026-04-23 19:50 45.55247 13.04193 16235 ft 215 kts 311°
2026-04-23 19:50 45.56054 13.02536 16235 ft 193 kts 317°
2026-04-23 19:51 45.56675 13.00898 16195 ft 187 kts 296°
2026-04-23 19:51 45.56768 12.99080 16193 ft 183 kts 272°
2026-04-23 19:51 45.56357 12.97391 16193 ft 180 kts 246°
2026-04-23 19:51 45.55515 12.96122 16178 ft 174 kts 217°
2026-04-23 19:52 45.54426 12.95520 16196 ft 164 kts 186°
2026-04-23 19:52 45.53347 12.95685 16200 ft 151 kts 154°
2026-04-23 19:52 45.52559 12.96502 16201 ft 132 kts 119°
2026-04-23 19:52 45.52279 12.97623 16202 ft 112 kts 82°
2026-04-23 19:53 45.52542 12.98558 16203 ft 98 kts 43°
2026-04-23 19:53 45.53153 12.98854 16204 ft 97 kts
2026-04-23 19:53 45.53737 12.98334 16201 ft 107 kts 320°
2026-04-23 19:53 45.54056 12.97368 16218 ft 105 kts 313°
2026-04-23 19:54 45.54285 12.96815 16219 ft 96 kts 325°